Regional Weather Roundup
Issued by NWS Charleston, WV

Home | Current Version | Previous Version | Graphics & Text | Print | Product List | Glossary On
Versions: 1 2 3 4 5 6 7 8 9 10 11 12 13 14 15 16 17 18 19 20 21 22 23 24 25 26 27 28 29 30 31 32 33 34 35 36 37 38 39 40 41 42 43 44 45 46 47 48 49 50
000
ASUS41 KRLX 252110
RWRRLX
West Virginia Regional Weather Roundup
National Weather Service Charleston WV
400 PM EST TUE NOV 25 2014

Note: "fair" indicates few or no clouds below 12,000 feet with no
significant weather and/or obstructions to visibility.

WVZ003-252200-
Northern Panhandle of West Virginia

CITY           SKY/WX    TMP DP  RH WIND       PRES   REMARKS
WHEELING       CLEAR     45  28  51 W10       30.06R
$$

WVZ009-252200-
Northwest West Virginia

CITY           SKY/WX    TMP DP  RH WIND       PRES   REMARKS
PARKERSBURG    CLEAR     50  26  39 W7        30.09S
$$

WVZ006-252200-
Western West Virginia

CITY           SKY/WX    TMP DP  RH WIND       PRES   REMARKS
HUNTINGTON     SUNNY     51  28  41 W7        30.07R
$$

WVZ015-252200-
West Central West Virginia

CITY           SKY/WX    TMP DP  RH WIND       PRES   REMARKS
CHARLESTON     MOSUNNY   54  26  34 W6        30.06R
$$

WVZ022-031-252200-
North Central West Virginia

CITY           SKY/WX    TMP DP  RH WIND       PRES   REMARKS
CLARKSBURG     CLEAR     51  29  42 SW8       30.04S
MORGANTOWN     PTCLDY    51  25  36 SW13      30.05R
$$

WVZ025-035-042-045-252200-
Southern West Virginia

CITY           SKY/WX    TMP DP  RH WIND       PRES   REMARKS
BECKLEY        SUNNY     50  23  34 W7        30.04R
LOGAN            N/A     54  25  32 W6        30.05R
BLUEFIELD      SUNNY     52  19  27 W9        30.04S
LEWISBURG      SUNNY     53  24  32 CALM      30.03S
$$

WVZ047-252200-
Northern Mountains of West Virginia

CITY           SKY/WX    TMP DP  RH WIND       PRES   REMARKS
ELKINS         CLEAR     50  25  37 W6        30.04S
$$

WVZ052-252200-
Eastern Panhandle of West Virginia

CITY           SKY/WX    TMP DP  RH WIND       PRES   REMARKS
MARTINSBURG    CLEAR     54  26  34 SW6       30.03S
PETERSBURG     CLEAR     57  16  20 CALM      30.02F
$$


USA.gov is the U.S. government's official web portal to all federal, state and local government web resources and services.